Regional Weather Roundup
Issued by NWS New Orleans/Baton Rouge, LA

Home | Current Version | Previous Version | Graphics & Text | Print | Product List | Glossary On
Versions: 1 2 3 4 5 6 7 8 9 10 11 12 13 14 15 16 17 18 19 20 21 22 23 24 25 26 27 28 29 30 31 32 33 34 35 36 37 38 39 40 41 42 43 44 45 46 47 48 49 50
035
ASUS44 KLIX 271110
RWRLIX
NEW ORLEANS REGIONAL WEATHER ROUNDUP
NATIONAL WEATHER SERVICE NEW ORLEANS LA
500 AM CST THU NOV 27 2014

NOTE: "FAIR" INDICATES FEW OR NO CLOUDS BELOW 12,000 FEET WITH NO
      SIGNIFICANT WEATHER AND/OR OBSTRUCTIONS TO VISIBILITY.
      SKY/WX - SKY CONDITION AND SIGNIFICANT WEATHER.
      TMP - AIR TEMPERATURE.     DP    - DEWPOINT TEMPERATURE.
      RH  - RELATIVE HUMIDITY.   PRES  - PRESSURE.
      HI  - HEAT INDEX.          WCI   - WIND CHILL INDEX.

*  THESE STATIONS ARE NOT NWS OR FAA STATIONS AND ARE NOT UNDER
   NWS QUALITY CONTROL.

LAZ038-040-048-061>063-065>067-069-271200-
SOUTHEAST LOUISIANA

CITY           SKY/WX    TMP DP  RH WIND       PRES   REMARKS
N.O. AUDUBON     N/A     53  44  70 MISG        N/A
N.O. INTL ARPT CLEAR     51  44  77 NW6       30.34R
N.O. LAKEFRONT CLEAR     55  45  68 NW12      30.35R
N.O. DOWNTOWN*   N/A     55  39  54 N6        30.34S
SLIDELL        CLEAR     41  39  93 CALM      30.34R
BATON ROUGE    CLEAR     41  39  93 CALM      30.36R
BOOTHVILLE     CLEAR     55  49  80 NW9       30.33R
BELLE CHASSE   CLEAR     48  42  80 N3        30.33R
BOGALUSA*        N/A     39  37  90 CALM      30.35R
NEW ROADS*       N/A     44  38  77 W5        30.38R
GONZALES*        N/A     46  44  91 NW3       30.36R
HAMMOND*       CLEAR     41  39  93 CALM      30.37R
HOUMA*         CLEAR     49  45  84 NW5       30.34R
PORT FOURCHON* SUNNY     55  48  76 NW8       30.37R

$$

MSZ070-080>082-271200-
SOUTHERN MISSISSIPPI

CITY           SKY/WX    TMP DP  RH WIND       PRES   REMARKS
MCCOMB         CLEAR     47  33  58 NW10      30.34R
GULFPORT       CLEAR     43  41  93 NW3       30.32R
BILOXI         CLEAR     47  44  86 VRB1      30.32R
PASCAGOULA     CLEAR     41  38  89 CALM      30.31S

$$

COASTAL OBSERVATIONS
LAKE AND NEARSHORE STATIONS

STATION/POSITION TIME  TEMP    WIND        PRES    WAVE
                       AIR SEA DIR/SP/G            HT/PER
                 (UTC) (F)     (DEG/KT/KT) (MB)    (FT/S)
PASCAGOULA       1100   50     320/  7/  9 1025.7
WAVELAND YACHT   1100   49     300/  6/  8 1026.1
GRAND ISLE       1100   56 59  350/ 11/ 16 1027.4
SOUTHWEST PASS   1100   60                 1027.0
NEW CANAL        1100   55 54  340/  6/  9 1027.6
SHELL BEACH      1100   55 52  320/ 13/ 15 1026.6

OFFSHORE STATIONS

STATION/POSITION TIME  TEMP    WIND        PRES    WAVE
                       AIR SEA DIR/SP/G            HT/PER
                 (UTC) (F)     (DEG/KT/KT) (MB)    (FT/S)
64 S DAUPHIN ISL 1005   62 70  330/ 19/ 25 1026.4    6/ 6

$$




USA.gov is the U.S. government's official web portal to all federal, state and local government web resources and services.